Theta_e
320 320 321 321 323 325 326 328 330 331 331 332 332 332 332 333 332 333 333 331 331 331 332 333 333 332 328 326 328 331 333 335 335 334 334 333 330 329 330 334 336 336 336 336 335 337 339 339 339 338 338 338 336 334 335 335 335 336 337 338 337 336 335 336 336 335 335 336 337 336 335 334 335 333 332 330 328 327 328 329 330 331 332 333 335
319 319 320 320 320 322 323 325 327 328 330 331 331 331 331 331 331 331 331 331 330 330 330 332 333 333 332 330 331 332 333 334 335 335 335 333 332 331 330 332 334 334 335 336 335 337 339 339 339 339 339 339 337 336 335 335 336 336 337 337 338 336 336 336 336 336 336 336 336 337 336 336 336 335 335 334 331 327 328 328 329 329 330 331 332
318 319 319 319 320 320 320 322 323 325 326 328 329 330 331 331 331 330 331 331 330 329 328 330 331 332 332 332 332 332 332 334 335 335 336 334 333 332 330 332 333 334 334 336 336 337 338 339 339 338 339 339 339 337 336 336 336 336 337 338 338 338 337 336 336 336 336 336 336 336 336 336 337 336 335 336 335 332 330 329 329 329 329 330 330
315 317 318 318 319 319 320 320 321 321 323 324 326 328 329 331 331 331 332 332 332 331 329 329 330 331 331 332 331 331 332 334 335 335 335 335 334 333 331 330 331 332 333 335 336 336 337 337 338 338 338 338 340 339 337 336 336 336 337 338 338 338 338 337 337 337 336 336 337 337 337 337 338 337 336 336 337 335 334 333 332 331 330 329 330
313 314 315 317 318 318 318 319 319 320 320 321 322 323 325 327 329 330 331 332 332 332 331 330 330 331 332 332 332 332 332 332 334 334 334 333 333 332 331 329 329 328 330 333 336 337 337 336 336 337 338 338 339 340 339 338 336 336 337 337 338 338 338 338 338 338 338 338 338 338 337 338 338 338 337 336 337 337 337 336 335 334 333 332 331
312 312 313 314 315 317 317 318 318 319 319 319 320 320 321 322 324 325 327 330 331 332 333 333 332 331 331 331 332 332 332 332 333 334 334 334 334 333 331 331 330 329 328 329 333 336 338 338 336 337 338 339 339 339 340 339 338 337 337 337 338 337 337 338 339 339 339 339 339 338 337 337 337 339 339 338 337 337 337 337 336 335 335 334 332
312 312 313 313 313 314 315 316 317 318 318 319 319 319 319 320 320 321 322 324 326 328 330 332 332 332 332 332 332 332 332 332 333 334 334 334 334 334 333 332 333 332 330 328 328 331 334 337 336 337 338 339 339 340 340 340 339 339 338 337 337 337 337 337 337 337 338 338 339 338 338 337 337 338 339 339 338 337 337 337 337 336 335 334 333
311 311 313 313 312 311 312 313 315 316 317 317 318 318 318 318 319 319 320 320 321 323 324 326 327 328 329 330 331 331 331 331 333 334 334 334 334 334 333 333 333 334 333 333 330 329 329 332 334 335 336 337 338 339 339 339 339 339 338 338 337 336 336 336 336 337 337 337 338 338 338 338 338 338 339 339 339 338 337 337 337 336 335 335 335
311 311 311 312 311 311 311 311 312 313 314 315 316 317 317 318 318 318 318 319 319 320 320 321 322 322 323 324 325 326 328 329 331 333 332 333 334 334 333 333 333 333 334 334 333 332 332 332 332 331 332 334 335 335 335 335 335 335 337 339 338 338 337 336 336 337 336 336 336 337 337 338 338 338 338 338 339 339 337 336 337 336 335 335 335
309 311 311 311 310 311 311 310 310 311 311 312 313 314 315 316 317 317 317 317 318 318 319 319 319 320 320 320 321 322 323 323 325 326 326 327 329 330 331 331 331 332 333 333 333 333 334 334 333 331 330 331 332 332 331 331 331 331 333 335 336 338 338 337 337 336 335 335 337 337 337 337 338 337 338 337 336 338 338 336 336 336 335 335 336
307 309 310 310 310 310 310 310 310 310 310 310 311 312 312 314 314 315 316 316 317 317 318 318 318 318 319 319 319 320 320 320 321 321 321 322 322 324 326 327 328 330 331 332 332 333 333 334 334 333 332 331 331 331 331 330 329 329 329 330 330 333 335 336 337 337 336 336 337 337 337 337 337 336 337 337 334 335 338 337 336 336 335 336 336
306 307 308 308 309 308 308 309 309 310 311 311 311 311 311 312 312 313 313 314 315 316 316 317 317 317 318 318 318 319 319 319 320 320 320 320 320 320 321 322 323 326 328 329 331 332 334 335 335 335 334 333 332 333 332 332 331 330 329 328 328 328 329 331 333 336 337 337 337 337 337 337 337 337 337 337 335 333 335 336 336 336 335 335 335
306 306 306 307 307 306 306 308 308 309 311 311 311 311 311 311 312 312 312 313 313 314 315 315 316 316 317 317 317 317 318 318 319 319 319 319 319 319 319 319 320 321 323 324 326 328 330 332 333 334 335 334 333 333 333 333 332 331 330 329 328 327 327 327 328 329 332 334 336 337 336 335 336 337 336 336 337 336 334 332 332 334 335 334 332
306 305 305 305 305 305 305 306 307 309 310 311 311 311 311 311 312 312 312 312 313 313 313 314 315 315 315 315 316 316 316 316 317 317 317 317 318 318 318 318 319 319 319 320 321 322 323 324 326 327 329 330 331 332 333 333 334 334 333 332 330 329 327 327 326 326 327 329 331 333 333 334 335 335 334 334 336 337 336 333 330 331 332 331 328
306 304 303 304 304 303 304 305 306 308 309 311 311 311 311 311 311 311 311 311 311 312 312 313 314 314 315 314 315 314 314 314 314 314 315 315 316 316 316 317 317 317 317 317 317 318 318 319 319 320 321 322 324 326 326 327 330 332 334 334 333 332 331 330 328 327 326 327 328 329 329 331 332 333 333 334 335 336 337 336 335 333 332 332 331
305 303 302 302 302 301 302 303 305 306 308 309 310 310 310 310 310 310 310 310 310 310 310 311 312 313 314 314 314 314 312 311 312 312 312 312 313 313 314 314 314 313 313 313 313 314 314 314 315 315 316 317 318 319 319 320 322 324 327 329 329 331 332 332 332 330 328 328 328 329 329 328 328 330 332 334 336 338 338 337 337 337 337 335 334
304 302 301 301 300 300 301 302 303 304 305 307 309 309 309 309 309 308 308 308 308 309 309 309 310 311 312 313 314 314 312 311 310 310 310 310 311 311 310 310 311 311 312 312 312 312 312 312 311 311 312 312 313 313 313 314 314 316 317 319 322 325 327 328 330 330 331 331 331 331 331 330 329 329 330 331 332 334 337 337 337 337 338 337 336
303 303 301 300 300 300 300 301 302 303 304 306 307 308 308 307 307 307 307 307 308 308 309 309 309 310 310 311 312 313 312 311 310 310 310 310 310 310 310 311 312 313 314 314 313 314 313 313 312 312 312 312 312 311 311 311 312 312 312 313 315 318 320 322 324 326 327 329 330 331 332 332 332 332 331 331 330 331 333 335 335 336 338 337 336
303 302 301 300 300 301 301 301 303 304 305 306 307 307 307 307 306 306 307 307 307 307 307 307 308 309 310 310 311 311 311 310 311 311 311 311 311 312 312 313 313 314 315 316 316 316 315 314 314 314 314 314 313 314 313 313 313 313 314 316 319 318 317 316 317 322 326 327 327 329 330 330 332 332 331 332 332 332 332 332 333 335 337 337 335
302 301 301 301 302 302 302 303 304 305 306 306 306 306 306 306 306 307 307 307 307 307 307 307 307 308 309 310 310 311 311 312 313 312 312 313 313 313 314 314 314 315 315 316 317 317 316 316 316 316 316 315 315 315 315 314 315 315 316 319 322 322 322 321 320 322 326 326 326 329 329 328 328 329 330 331 333 334 332 332 332 333 334 335 334
301 300 301 302 302 303 303 304 305 305 305 305 306 306 305 305 306 308 308 308 308 307 307 307 307 308 309 310 310 311 312 313 313 313 314 314 315 315 315 315 315 315 316 316 316 316 316 316 316 316 316 316 315 315 315 315 315 315 316 317 319 320 321 323 324 325 326 327 327 327 326 324 325 326 327 329 332 333 332 332 332 332 333 334 334
300 300 299 300 300 302 303 305 305 305 305 305 305 305 305 305 306 307 308 308 308 309 309 308 308 308 309 309 311 311 312 313 313 313 314 315 315 315 315 315 315 315 315 315 316 316 316 316 316 316 316 315 315 315 315 315 315 316 316 317 317 318 318 319 320 321 323 325 326 327 325 325 326 326 328 329 331 332 332 332 332 333 332 333 333
300 301 300 301 302 303 304 305 305 305 305 305 305 305 304 305 306 307 307 307 308 308 308 308 308 309 309 310 310 311 312 312 312 312 313 315 315 315 315 316 315 315 315 315 315 314 315 315 315 316 316 316 316 315 314 314 314 315 315 315 316 317 318 318 318 318 319 320 322 323 323 324 324 324 325 327 327 329 331 333 333 332 331 331 332
300 301 302 303 304 304 305 304 304 304 304 304 305 305 304 304 305 305 306 306 306 307 307 307 307 308 308 309 309 310 310 311 311 311 312 314 315 315 315 315 315 314 314 314 314 314 314 314 314 314 314 315 315 315 314 313 313 313 313 314 314 315 316 317 317 319 319 319 320 320 320 321 321 321 322 322 322 324 329 332 333 333 333 332 332
300 301 303 304 304 304 304 304 304 304 304 304 305 304 304 304 304 304 305 305 305 306 306 306 306 306 307 308 308 309 309 310 310 310 309 311 314 314 314 315 315 315 315 315 315 314 314 314 314 314 314 314 313 314 314 314 312 311 311 312 313 314 314 315 316 318 319 319 320 321 321 321 323 323 323 323 324 324 326 328 331 333 334 333 333
300 301 302 304 304 304 304 304 303 304 304 304 304 305 304 304 304 304 304 304 305 305 306 306 306 306 306 307 307 308 308 309 309 309 308 311 313 314 314 314 314 314 314 314 315 315 314 314 314 315 315 314 313 312 313 313 311 310 310 311 311 312 313 314 315 316 317 318 319 321 321 322 323 324 325 325 326 327 326 327 328 330 331 333 334
301 302 302 303 304 304 304 303 303 304 304 303 304 304 304 304 304 304 304 304 305 305 305 306 306 306 306 307 306 307 307 307 307 308 309 311 313 313 314 314 314 314 314 314 314 314 314 314 314 315 316 315 314 312 312 311 310 310 310 311 311 312 313 313 314 314 314 315 317 318 320 321 322 323 323 324 325 326 326 327 328 327 327 331 334
301 302 302 303 303 303 303 303 303 304 303 303 303 304 304 304 304 304 304 305 305 305 306 306 306 306 307 307 307 307 307 307 307 308 310 311 312 312 313 313 313 313 313 313 313 313 314 314 315 316 316 315 314 312 311 311 312 312 312 312 313 313 313 314 314 314 314 315 315 316 317 318 320 321 322 323 323 324 325 325 327 327 325 328 331
302 303 303 303 303 303 303 304 303 303 303 303 303 303 303 303 303 304 304 305 305 305 306 306 306 306 307 307 307 307 307 308 308 309 310 311 311 312 312 313 313 313 313 313 313 313 313 314 315 315 314 313 312 312 311 311 313 314 314 314 314 315 315 315 315 316 316 316 316 316 316 317 317 318 320 321 322 323 324 324 326 327 327 327 327
303 303 303 302 301 301 303 304 303 303 303 303 302 302 302 302 303 303 304 304 304 305 305 305 305 306 306 307 307 307 307 308 308 309 310 310 311 311 312 312 313 313 312 312 312 312 313 313 313 313 313 312 311 310 310 311 312 313 314 315 315 315 315 316 316 316 316 317 317 317 317 317 317 317 318 319 320 321 323 324 324 326 327 328 327
302 303 303 302 299 299 302 303 302 303 303 302 302 302 301 301 302 302 303 303 304 304 305 305 305 305 306 306 307 307 307 308 308 309 309 310 310 311 311 312 312 312 311 311 311 312 312 312 313 313 311 309 309 310 310 311 311 312 313 314 315 315 315 316 316 316 317 317 317 317 317 317 318 318 318 318 319 319 320 322 324 325 326 327 327
301 302 303 302 300 300 301 302 302 302 302 301 301 301 301 301 301 301 301 302 302 303 303 303 304 304 305 306 306 307 307 307 308 308 308 309 310 310 311 311 312 312 311 311 310 311 311 311 311 311 309 308 308 309 311 311 312 312 313 313 314 315 315 316 316 316 317 317 317 318 318 318 318 318 318 318 318 319 319 320 322 323 324 325 326
299 301 302 302 302 301 301 301 301 301 301 301 301 300 301 301 301 300 301 301 301 301 302 302 303 303 304 305 305 306 307 307 307 307 308 308 308 309 310 311 311 311 311 311 310 310 310 310 310 309 309 309 309 309 309 310 310 311 311 312 313 313 314 315 316 316 317 317 317 318 318 318 318 318 318 319 318 318 319 319 320 321 322 323 323
296 299 299 299 299 301 302 301 301 301 301 300 301 300 300 300 299 300 301 301 301 301 301 301 302 302 303 304 305 305 306 306 306 307 307 307 308 308 309 309 308 307 307 308 309 310 310 310 310 309 309 309 309 309 309 309 309 309 309 309 310 311 311 313 314 315 316 316 317 317 318 318 318 318 318 318 319 319 319 319 319 320 321 321 322
296 297 297 295 297 301 303 302 301 301 301 300 299 299 299 299 299 299 300 301 301 300 300 301 301 300 300 302 303 304 305 305 305 306 306 306 307 307 307 306 305 304 304 304 307 309 309 309 309 309 309 309 309 309 308 308 308 309 309 308 308 308 309 310 311 312 313 314 316 316 317 317 318 318 318 318 318 319 319 319 319 320 321 321 322
296 297 298 298 300 302 303 302 301 301 299 297 297 298 299 299 299 299 299 300 300 299 300 301 300 298 297 298 299 301 303 303 304 305 305 306 307 306 304 303 303 304 303 303 305 307 305 304 305 307 308 309 309 308 308 309 309 309 309 308 309 308 308 307 308 310 311 312 314 315 316 317 317 317 317 317 318 319 319 319 319 320 320 320 321
297 296 297 299 300 300 301 302 301 299 296 295 297 300 300 299 298 298 299 300 299 299 300 300 299 299 299 298 295 295 297 299 301 303 303 304 305 304 302 302 302 302 302 303 304 306 304 302 303 304 305 307 308 308 308 308 308 308 308 308 308 308 308 307 307 308 309 311 312 313 314 315 316 316 316 317 318 318 317 317 317 316 317 317 319
298 296 295 296 296 296 298 300 300 299 297 298 300 300 299 298 298 298 299 299 299 299 300 300 299 299 300 298 294 293 293 295 297 298 299 301 302 301 300 301 302 301 302 302 303 304 304 303 303 304 304 305 306 307 307 307 307 307 307 307 307 308 308 308 308 308 308 309 310 311 312 313 314 315 315 316 317 317 316 316 316 315 315 315 316
299 297 295 294 294 294 295 297 297 297 298 299 300 300 299 298 299 299 299 299 299 298 299 299 298 299 299 297 293 292 292 293 294 295 295 296 299 299 300 301 301 302 302 303 303 303 304 304 304 304 304 304 305 305 305 306 306 306 306 307 307 307 307 307 307 308 308 308 309 310 310 311 313 314 314 315 316 316 316 316 316 316 316 315 315
300 299 296 294 294 295 295 295 296 297 298 299 299 299 299 299 299 298 298 298 298 298 298 298 298 299 298 296 293 292 292 293 294 294 293 294 295 297 298 299 301 301 302 302 303 303 303 303 303 303 303 303 303 304 304 304 305 305 305 306 306 307 307 307 307 307 307 308 308 308 309 310 311 312 313 314 315 315 315 316 316 316 315 315 316
301 300 298 297 297 297 298 298 298 298 299 299 299 299 298 298 298 297 297 298 297 297 297 297 298 298 297 295 293 292 292 293 294 294 293 293 294 294 295 297 298 299 300 301 301 302 302 302 303 303 303 303 303 303 303 303 303 304 304 305 305 306 306 306 306 307 307 307 307 307 307 308 309 310 311 312 313 314 314 314 314 315 315 315 316
301 301 300 300 300 300 300 300 300 300 300 301 301 300 299 299 298 298 298 298 298 297 297 297 297 297 297 295 294 293 293 293 294 294 293 293 293 293 293 295 296 297 298 299 299 300 301 302 302 302 302 302 302 302 302 302 302 302 303 304 304 305 306 306 306 306 306 307 307 307 307 307 307 308 309 310 311 312 313 313 314 314 315 315 316
301 301 301 301 301 301 301 300 300 301 301 301 301 301 300 299 299 298 299 299 298 298 298 298 297 297 296 296 295 294 295 295 296 295 294 293 292 292 292 293 294 295 297 298 298 298 299 300 301 301 302 302 302 302 302 301 301 302 302 303 304 304 305 305 305 305 306 306 306 306 307 307 307 307 308 309 309 309 311 312 313 314 314 315 315
301 301 301 301 301 301 301 301 301 301 301 301 301 301 301 300 300 300 300 299 299 298 298 298 298 298 297 296 296 296 296 296 295 294 294 293 292 292 292 292 292 293 295 296 297 297 298 298 299 299 300 301 301 302 302 301 301 301 302 302 303 303 304 304 305 305 305 305 305 306 306 306 307 307 308 309 309 309 310 311 312 313 314 315 315
301 301 301 301 301 301 301 301 301 301 301 301 301 302 301 302 302 301 301 301 300 299 299 298 298 298 297 297 297 296 296 295 294 294 293 293 292 292 292 292 291 291 292 294 296 297 297 297 297 298 298 299 299 300 300 301 301 301 301 301 302 303 303 304 304 305 305 305 305 305 305 306 306 307 307 308 309 310 311 311 311 312 312 313 313
301 301 301 301 301 301 301 302 301 301 301 302 302 302 302 302 302 302 302 301 301 300 300 299 298 297 297 297 297 297 296 295 294 294 293 293 292 292 292 292 291 291 291 292 293 295 296 296 297 297 297 297 297 298 298 299 299 300 300 300 301 301 302 302 303 304 304 305 305 305 305 305 306 307 307 308 308 309 310 311 312 312 312 311 310
301 301 301 302 301 301 302 302 302 302 302 302 302 302 302 302 302 302 301 301 301 301 300 300 299 299 298 298 297 297 296 295 295 294 294 293 293 292 292 291 291 291 291 291 291 292 294 295 296 296 296 297 297 297 297 297 297 298 298 299 299 300 300 301 302 303 304 304 305 304 304 305 305 306 307 307 308 308 309 310 311 312 312 312 311
302 302 302 302 302 303 303 303 303 303 303 303 302 302 302 302 302 302 302 301 301 301 300 300 300 299 299 298 297 297 296 295 294 294 294 294 293 293 292 292 291 291 291 291 291 291 292 293 294 295 295 295 296 296 297 297 297 297 297 297 298 298 298 299 300 301 302 304 304 304 304 304 304 305 306 306 307 307 308 309 310 310 310 311 311
304 304 304 304 304 304 304 304 304 303 303 303 303 302 302 302 302 301 301 301 301 301 301 301 300 300 299 298 298 297 296 295 294 294 294 294 294 293 293 292 291 291 291 291 291 291 291 291 292 293 294 294 294 294 295 296 297 297 297 297 297 297 297 297 298 299 300 302 303 304 304 304 304 304 305 305 305 306 306 307 308 308 309 309 310
305 305 305 304 304 305 305 305 305 305 304 304 304 303 303 303 303 302 301 301 301 301 301 301 300 300 299 298 298 297 297 296 295 294 293 293 293 293 293 292 292 291 291 291 291 291 291 290 290 291 292 293 293 293 293 294 295 296 296 297 297 297 297 297 297 297 298 299 300 302 303 304 304 304 304 305 305 305 305 306 306 307 308 308 308
305 305 305 305 305 306 306 306 305 305 305 305 304 304 304 303 303 302 302 301 301 301 301 301 300 299 299 298 298 297 297 297 296 295 294 293 292 293 293 293 292 292 291 291 290 290 290 290 290 290 290 291 292 292 292 292 293 294 295 296 296 296 297 297 297 297 297 297 298 299 301 303 303 304 304 304 304 304 304 305 305 305 306 306 307
Wind_Speed
5 5 5 5 4 2 1 3 5 7 9 11 13 14 16 17 18 21 22 23 24 22 21 19 17 20 24 26 25 25 24 23 23 23 23 23 24 24 23 21 20 20 20 20 19 17 17 17 16 17 16 16 18 19 19 18 18 17 17 18 21 23 23 22 24 25 22 19 18 17 16 17 21 22 21 21 21 19 17 15 14 14 13 12 13
3 2 2 3 3 3 2 1 2 4 5 7 8 10 12 14 16 17 19 21 23 23 23 20 16 18 21 22 23 24 25 23 21 22 22 22 22 22 23 23 22 22 22 21 20 19 18 18 18 17 17 17 18 20 21 21 20 19 19 19 19 22 24 23 23 24 23 21 20 19 17 18 21 22 21 22 23 21 18 18 17 16 16 15 15
4 4 2 1 1 2 3 2 2 3 5 7 7 8 9 11 13 14 14 15 17 19 22 20 18 20 21 20 22 24 24 23 21 21 20 20 21 21 21 22 23 23 24 23 23 21 21 21 20 19 19 19 19 19 20 21 22 21 21 21 20 21 23 25 24 24 23 22 21 20 19 19 20 20 19 21 22 20 19 20 20 19 18 17 17
4 6 6 5 4 3 3 3 3 3 4 5 7 7 7 8 9 10 11 12 13 14 17 19 20 21 21 21 21 23 24 22 21 20 20 21 21 20 21 22 23 24 24 24 24 24 23 23 22 22 21 21 20 19 20 21 22 22 23 23 22 21 21 23 24 24 24 23 22 21 20 20 20 20 18 20 22 20 18 19 20 21 21 20 19
3 5 7 8 8 7 6 6 6 5 4 5 5 6 7 7 8 8 8 10 11 12 14 17 18 19 20 20 20 21 23 22 21 21 22 22 21 21 21 22 23 24 25 24 24 24 24 24 23 22 21 21 21 21 21 20 21 23 24 23 22 22 22 22 22 23 24 25 24 23 23 23 22 21 19 20 22 20 17 17 18 19 21 22 21
4 3 4 7 9 10 10 9 9 9 8 8 7 6 7 7 8 9 9 9 10 10 11 13 15 17 18 19 19 20 21 21 20 20 21 21 21 21 20 21 22 24 25 25 24 23 22 22 23 23 22 21 22 22 22 21 21 23 24 23 22 23 24 23 22 22 22 24 24 24 25 25 24 23 21 20 20 19 19 20 19 17 18 20 22
8 6 4 3 5 9 11 12 12 11 11 11 10 10 9 9 9 9 10 10 10 11 11 12 13 15 16 17 18 18 19 19 18 19 19 20 20 20 20 20 21 22 24 25 26 26 24 23 23 23 22 21 21 21 22 22 22 22 23 24 24 24 25 24 24 23 22 24 24 25 26 25 25 24 22 21 21 19 20 23 22 19 17 18 21
10 9 7 5 4 4 7 10 12 13 13 13 13 13 13 13 13 12 12 12 12 13 14 14 14 14 15 15 16 17 18 18 17 17 18 19 19 20 20 20 20 20 21 22 24 26 27 27 27 26 26 25 24 23 23 23 23 23 23 23 24 25 25 24 24 23 23 24 25 25 25 25 24 23 22 22 22 21 20 21 23 22 19 17 18
11 10 9 8 8 7 6 6 8 12 14 15 16 16 15 15 16 15 15 15 15 16 16 17 17 17 17 17 17 17 18 17 16 17 17 17 17 18 18 18 19 20 21 21 22 23 24 26 28 30 30 30 30 29 28 27 27 26 24 23 24 24 24 24 24 24 24 24 24 24 23 23 24 24 24 25 24 21 20 21 25 26 22 19 20
11 10 10 10 10 9 9 8 6 7 10 13 16 17 18 19 18 18 18 18 19 19 19 19 20 20 20 19 19 20 20 19 19 19 18 18 18 18 18 19 19 20 21 21 21 22 23 24 27 29 30 31 31 32 32 32 32 30 27 26 26 26 25 25 26 26 25 25 24 23 23 24 24 24 25 27 26 22 22 23 25 25 22 21 23
12 11 10 10 10 10 10 9 9 9 9 10 12 15 17 19 20 21 22 22 22 22 22 22 22 23 23 23 23 23 23 23 24 23 22 21 22 22 21 21 21 21 22 23 23 23 23 24 25 26 28 30 30 31 31 32 33 33 33 32 31 30 30 29 28 27 27 27 26 25 25 25 26 27 27 27 28 27 24 23 22 22 21 21 23
12 12 11 10 10 11 11 10 10 10 10 10 11 11 13 15 17 19 22 24 26 26 27 27 26 26 26 26 26 27 27 26 27 26 25 25 25 25 25 24 24 23 23 24 24 24 24 24 24 25 25 27 28 28 29 31 32 33 34 35 36 35 36 35 34 32 30 30 29 28 27 26 26 28 28 28 30 30 28 26 25 23 22 21 23
12 12 12 12 12 12 12 11 11 10 9 9 10 10 10 11 12 13 16 19 21 22 24 27 29 30 31 31 30 30 30 30 29 28 27 27 27 28 28 28 28 27 26 26 26 26 25 25 25 26 26 27 27 28 29 29 30 32 34 35 37 38 39 40 40 40 38 37 34 32 32 32 31 31 31 31 30 30 32 34 32 26 23 24 27
12 13 13 13 13 14 14 13 12 11 9 9 10 10 10 11 10 10 11 13 14 14 17 19 20 23 27 30 33 33 33 32 32 31 30 30 31 31 31 31 32 32 32 31 31 31 31 30 30 30 30 30 29 29 30 29 29 31 33 34 36 38 40 42 43 44 44 45 44 42 41 40 38 37 38 37 34 33 34 36 37 35 31 30 33
12 13 14 14 15 15 15 14 13 12 10 9 10 10 10 10 11 10 11 11 12 12 14 14 13 14 17 21 26 30 32 31 31 30 30 31 32 33 34 34 35 35 35 35 35 35 36 35 36 36 36 36 35 35 35 35 33 32 33 34 35 35 37 40 41 43 45 46 48 49 48 47 45 42 41 39 38 37 36 36 36 37 37 35 33
12 13 14 15 15 16 16 16 15 14 12 10 10 10 10 10 10 11 11 12 12 13 15 16 15 14 14 14 17 22 26 26 26 25 25 26 28 30 31 32 32 32 32 33 33 34 34 35 36 37 38 39 39 40 41 41 41 40 40 40 40 38 38 39 39 41 43 43 44 46 47 48 48 46 44 40 38 37 37 37 33 31 33 34 32
12 13 14 15 16 16 17 17 16 15 14 12 11 11 11 11 10 10 11 12 13 14 15 16 17 17 17 15 14 15 18 21 23 22 22 23 25 26 27 27 26 26 26 27 28 29 31 32 33 34 36 38 39 41 42 43 44 45 45 46 46 45 44 43 42 42 43 42 42 43 43 44 44 45 44 43 43 42 41 38 33 29 31 33 32
12 13 14 15 16 16 16 16 16 16 14 12 12 12 11 11 10 11 12 13 14 14 14 14 14 15 16 15 14 15 16 18 20 20 20 22 23 24 23 23 22 22 23 24 26 27 30 31 33 34 36 38 40 41 42 43 45 47 48 49 50 50 49 47 46 46 46 45 45 45 45 44 43 43 43 42 43 44 46 47 42 36 34 33 33
12 13 14 15 15 15 15 15 15 15 14 12 11 12 12 11 12 13 14 14 13 12 11 11 12 13 14 15 16 18 18 16 15 16 18 19 20 21 20 19 20 21 21 22 24 26 29 32 34 36 37 39 40 41 42 43 46 48 48 47 47 49 50 50 51 49 46 45 46 46 47 47 45 45 45 43 42 41 43 46 47 46 46 43 38
12 13 14 14 14 14 14 13 12 12 12 11 11 12 12 11 12 14 14 13 12 11 10 10 11 12 13 13 14 15 16 14 13 14 16 17 17 18 18 18 19 19 19 20 22 24 27 30 32 35 38 40 41 42 43 43 44 46 46 43 43 43 42 43 45 45 43 44 45 45 46 47 47 47 47 46 44 42 40 41 43 47 52 52 48
12 13 13 13 12 12 12 12 12 10 10 11 11 11 11 11 12 12 12 12 13 12 11 10 11 11 10 10 11 11 12 12 11 12 14 16 16 17 18 19 19 20 22 24 26 28 30 30 32 35 37 40 42 44 45 45 45 45 45 43 42 43 41 39 39 38 38 40 42 44 48 49 47 47 48 47 45 44 43 43 42 42 46 51 52
12 13 13 13 13 13 11 11 11 10 9 10 11 11 11 11 11 11 11 11 11 11 11 11 11 10 9 8 8 8 9 9 9 10 13 15 16 16 17 19 20 22 26 28 30 33 34 35 36 38 40 42 44 45 46 46 46 47 48 46 43 42 42 43 43 41 39 38 38 41 44 44 43 44 46 46 45 45 46 46 44 41 42 45 49
11 11 12 12 12 11 10 10 11 9 9 10 10 11 11 11 10 11 11 10 10 10 10 11 11 9 8 7 7 6 6 7 9 11 13 15 15 15 16 18 19 22 24 27 29 31 34 37 39 41 43 45 46 47 48 48 47 48 49 48 46 44 42 42 44 44 44 42 41 43 44 43 45 48 48 47 46 46 46 46 46 45 45 45 46
10 10 10 10 10 9 9 9 9 9 9 10 10 10 12 12 11 11 11 10 10 10 10 11 11 10 8 7 7 6 6 6 8 11 14 15 13 14 16 17 19 21 24 26 27 30 33 36 38 41 45 47 48 48 48 48 49 49 48 47 46 45 44 45 44 43 44 45 45 46 47 47 48 51 53 53 52 49 46 44 44 44 44 44 43
9 9 9 9 9 9 9 8 8 9 9 9 9 10 11 12 11 11 11 11 11 11 11 11 11 10 9 8 8 8 7 7 7 9 12 14 14 15 17 18 19 22 25 27 29 32 34 37 39 40 42 45 48 49 49 48 47 47 47 46 45 45 45 46 45 43 43 44 43 42 42 42 41 41 43 45 46 47 47 47 45 43 42 42 43
9 9 9 8 8 9 8 8 7 8 8 9 9 9 10 11 10 10 12 14 14 13 13 13 12 11 11 10 10 10 10 9 8 8 11 16 19 19 19 20 21 23 26 29 31 34 37 40 42 43 42 42 44 46 47 45 42 42 42 43 43 44 44 45 46 46 46 46 44 42 40 37 36 35 35 35 36 38 40 43 45 45 43 42 44
8 8 8 8 8 8 8 8 8 7 7 8 8 8 9 10 9 10 14 18 18 16 16 15 14 14 14 13 13 12 11 10 9 11 16 21 23 23 22 23 24 26 28 31 33 36 38 40 42 43 42 40 39 40 39 36 33 34 36 36 37 38 39 41 43 44 46 45 45 45 43 38 35 35 35 35 36 37 37 37 40 44 44 41 42
6 7 7 7 7 7 7 8 8 6 7 8 8 8 8 9 8 10 14 19 20 19 18 17 16 16 16 16 16 16 14 11 12 17 22 25 25 26 26 26 27 28 30 32 34 36 38 39 40 41 39 35 32 33 31 25 24 25 27 27 28 30 32 34 36 36 37 37 38 41 43 41 39 38 36 36 37 38 38 37 37 40 43 42 43
5 6 6 6 7 7 6 6 6 6 6 7 7 7 8 8 8 9 12 15 16 17 18 19 18 18 17 17 17 17 17 15 16 19 22 23 24 26 27 27 28 30 31 32 34 35 35 37 38 36 32 29 28 29 26 21 19 20 20 22 23 24 25 28 31 32 31 31 32 33 35 38 40 40 39 38 39 38 36 37 38 38 38 42 48
5 5 5 5 6 6 5 6 6 6 6 7 7 8 10 10 9 8 9 11 12 13 15 16 17 18 18 18 17 18 18 19 19 19 20 21 22 24 24 25 27 29 29 29 30 30 31 33 33 29 25 24 26 25 21 20 21 20 20 21 23 24 25 26 28 29 29 30 32 31 30 32 36 38 39 40 40 39 37 37 39 39 38 40 46
5 5 4 6 8 7 5 6 7 7 7 8 8 8 9 11 11 9 9 9 10 10 11 12 13 15 16 17 17 17 19 20 20 20 20 21 22 22 23 23 24 25 25 26 26 25 26 28 27 25 23 21 20 20 17 18 21 22 22 23 24 24 25 25 26 28 28 29 31 31 30 30 30 32 34 36 38 38 38 38 39 40 41 42 43
5 5 5 6 8 8 6 6 7 7 7 8 8 8 8 9 11 10 9 9 9 9 9 10 11 12 14 15 16 17 17 18 19 20 20 21 21 22 21 21 20 20 20 22 24 24 23 24 25 24 22 19 18 18 18 18 20 22 23 25 25 26 26 26 27 29 29 30 32 32 31 30 28 29 31 33 34 35 36 37 39 40 42 44 44
5 6 6 6 7 7 6 6 7 7 7 7 8 8 8 9 10 10 10 9 10 10 9 9 9 10 12 14 15 16 16 17 18 20 20 21 22 21 20 20 19 18 18 20 21 22 21 21 21 21 20 19 18 18 18 19 20 23 25 28 28 29 29 30 31 33 33 33 34 34 33 32 32 32 32 32 33 34 35 36 37 37 40 43 43
6 6 6 6 6 6 6 7 7 7 7 8 8 8 9 9 10 10 11 11 12 13 12 11 10 11 11 12 13 15 15 16 17 19 20 21 22 21 20 19 19 18 18 19 19 20 20 19 18 18 18 19 19 19 20 20 21 22 24 27 31 33 33 31 30 32 35 35 34 34 35 35 35 36 36 35 33 33 34 35 35 35 37 40 42
7 7 8 8 7 6 6 7 7 7 7 8 9 9 9 10 10 10 11 11 12 13 12 12 13 13 12 11 11 13 14 16 17 18 19 19 21 22 20 18 18 17 16 16 18 19 18 18 18 19 19 19 19 21 22 23 24 26 27 28 28 31 34 35 32 31 31 32 33 34 34 35 35 36 39 40 38 36 36 36 35 34 35 38 41
8 7 8 8 7 6 7 7 7 7 8 9 9 9 9 10 10 11 10 10 11 12 11 11 13 16 16 15 14 13 13 15 16 17 18 19 20 20 17 15 16 17 15 15 19 20 17 15 16 19 21 21 22 22 24 25 26 26 28 30 32 31 29 30 35 36 33 30 29 30 31 34 36 36 37 39 39 37 38 38 37 36 38 41 42
8 6 7 7 7 7 8 8 8 9 10 10 9 8 9 10 11 11 10 10 11 12 12 12 14 15 15 18 20 19 17 16 17 17 20 21 19 16 15 14 15 16 16 16 20 21 17 13 15 18 20 23 24 24 25 26 26 27 28 29 31 32 31 27 26 31 36 36 34 32 30 31 34 35 36 39 40 38 39 41 41 43 45 46 45
9 8 7 7 8 8 8 8 9 10 10 10 9 9 10 11 11 11 11 11 12 12 11 12 14 13 13 17 23 24 22 22 21 20 22 22 17 13 13 14 15 16 17 18 20 21 19 17 17 19 20 22 23 24 25 26 27 27 28 30 30 30 30 29 26 22 23 29 35 37 37 36 36 34 33 36 40 41 41 42 42 43 45 47 46
9 9 9 8 8 8 7 7 8 9 9 9 9 10 11 12 12 11 12 12 12 13 12 13 13 12 13 18 24 25 24 23 23 22 23 23 20 16 14 15 18 20 21 21 21 21 20 19 20 20 21 21 22 23 24 26 27 27 29 30 30 30 29 29 29 27 23 20 21 24 29 35 40 41 39 38 38 38 39 40 41 41 43 45 45
8 8 9 8 8 7 7 7 7 8 9 9 10 11 12 12 12 13 13 13 13 14 14 15 14 13 14 20 24 25 25 24 22 22 24 24 23 21 20 20 21 22 23 23 23 22 21 20 20 20 21 22 22 23 24 26 26 27 28 29 29 29 30 30 30 29 27 26 24 22 20 21 25 32 40 46 47 45 42 42 42 42 43 44 45
7 8 8 7 6 6 7 8 8 8 9 9 9 10 11 12 13 14 14 14 15 16 16 16 15 15 18 22 24 23 24 24 21 21 23 24 23 23 24 23 23 22 22 23 23 23 22 21 21 21 21 22 23 24 25 26 27 26 27 27 27 28 28 29 29 28 28 28 28 27 26 25 25 26 27 33 42 48 50 50 48 46 46 45 44
8 8 8 7 6 6 7 8 9 10 10 10 11 12 12 13 14 14 15 15 16 17 17 17 16 16 19 24 24 23 23 22 20 21 23 23 23 24 24 24 25 24 23 22 23 23 23 22 21 22 22 22 23 24 25 26 26 26 25 25 26 26 26 26 26 27 28 28 28 29 30 29 28 29 30 27 25 31 39 44 47 47 47 46 45
9 8 8 9 9 9 9 10 11 12 12 12 13 14 15 15 15 16 16 16 17 17 18 18 18 17 19 23 25 25 23 19 18 20 22 23 24 24 24 24 25 25 24 23 23 23 23 22 22 21 21 22 22 23 24 25 26 25 24 24 24 25 25 25 26 26 27 28 28 29 31 30 28 27 29 29 25 21 23 28 33 37 41 43 44
12 12 12 12 12 13 14 15 15 15 16 16 17 17 18 18 18 18 18 17 17 18 18 19 19 19 20 21 21 21 20 18 19 21 22 23 24 24 24 24 25 25 25 25 24 23 24 23 23 22 21 21 21 21 22 23 24 24 24 23 23 24 24 25 25 26 27 27 28 29 30 30 28 25 26 27 26 22 20 19 21 25 29 33 35
14 15 15 16 17 18 19 19 20 21 22 22 22 21 20 20 20 20 19 19 19 19 19 20 20 21 21 21 20 20 20 21 22 22 22 23 24 24 23 23 24 25 25 25 25 24 24 23 23 23 22 21 21 21 21 21 22 22 23 23 23 23 24 24 25 25 25 25 26 29 30 30 28 25 23 23 24 23 22 19 16 15 18 22 25
17 18 19 19 21 22 22 23 23 24 23 23 22 21 20 20 19 19 20 21 22 22 22 22 22 21 21 21 20 20 21 22 22 23 23 24 24 23 23 24 24 24 25 25 25 25 24 24 23 23 23 22 21 21 21 21 21 21 22 22 22 22 22 23 23 23 23 22 23 25 27 28 28 26 23 21 21 21 20 19 18 17 13 11 11
19 20 22 22 23 24 25 26 27 27 27 27 27 26 26 25 23 23 24 25 26 27 27 26 25 23 22 21 21 20 21 21 22 23 24 24 24 24 24 25 25 24 24 25 25 26 25 25 24 24 23 22 22 21 20 20 20 21 21 21 21 21 21 21 21 21 21 21 21 21 23 25 26 26 24 22 21 19 17 15 15 16 14 12 9
21 22 24 24 25 26 28 28 29 29 29 29 29 28 28 28 27 26 26 25 25 25 26 25 24 23 22 21 22 22 21 21 22 23 24 24 25 25 25 25 25 25 24 24 25 26 26 26 25 25 24 24 23 22 21 20 20 20 20 20 20 20 20 20 20 20 19 19 19 19 19 20 22 23 22 21 20 19 18 16 14 13 11 10 8
23 24 25 26 27 27 28 27 27 27 26 26 26 26 26 27 27 27 27 25 24 24 24 23 23 22 21 22 23 23 23 23 23 23 23 24 24 25 25 25 25 25 25 25 25 26 27 27 27 26 25 25 25 24 23 21 20 20 19 19 20 20 19 19 19 19 18 18 18 17 17 17 18 19 19 19 18 17 16 15 14 12 10 8 7
25 26 27 27 26 26 26 26 25 25 25 24 25 25 26 26 27 27 27 26 24 24 23 23 23 23 23 24 25 25 24 24 24 23 22 23 25 25 25 25 24 25 25 26 25 26 26 27 27 27 26 26 26 25 24 23 22 21 20 19 19 19 19 19 18 18 17 17 16 16 16 16 15 15 15 16 16 15 15 14 13 11 9 7 6
23 24 24 24 24 24 24 24 24 23 23 24 24 25 25 25 24 24 24 24 23 23 22 23 23 23 24 25 27 28 28 27 26 25 24 25 25 25 25 25 24 24 25 25 26 26 26 26 27 27 27 26 26 26 25 24 23 22 21 20 19 19 19 19 18 18 17 16 15 15 15 15 15 14 12 12 13 14 14 13 12 11 10 8 6
Wind_Direction
60 61 62 60 54 42 317 254 249 250 251 252 254 255 256 257 256 254 250 244 242 242 242 243 243 239 237 240 243 241 237 237 240 243 244 244 244 243 242 241 238 235 235 236 236 237 240 242 242 243 244 244 244 243 242 242 241 241 241 241 242 242 241 242 248 255 257 256 256 251 243 238 242 248 252 255 258 259 259 259 259 260 262 259 255
120 85 47 40 37 36 31 328 257 249 248 253 258 263 264 262 259 259 259 255 251 249 246 245 245 241 238 239 242 242 240 238 240 243 244 245 245 244 244 244 242 238 237 237 236 235 238 241 242 242 241 241 243 242 241 241 239 239 239 239 238 238 240 241 245 252 256 257 257 255 250 242 241 245 248 253 261 264 260 256 257 258 259 258 255
168 172 178 220 307 335 345 347 322 278 261 256 254 256 262 265 262 259 259 257 255 252 250 247 245 243 239 238 239 241 241 239 240 241 243 245 244 244 246 246 244 242 240 240 239 237 237 241 243 243 241 239 240 240 241 241 240 240 240 240 239 237 238 240 242 247 252 255 257 255 253 249 246 245 245 249 258 264 260 255 254 254 253 253 254
198 192 191 197 215 244 271 290 298 301 286 273 268 262 258 264 266 262 260 258 256 253 250 248 247 246 244 243 243 244 243 241 241 242 243 244 243 245 251 253 252 250 246 244 244 243 242 241 242 244 244 243 243 243 241 241 241 241 241 242 242 240 239 239 240 244 247 252 254 253 252 252 251 249 247 247 252 257 257 251 250 250 249 249 250
243 220 209 206 207 213 225 236 244 252 258 263 272 273 267 261 257 256 256 257 258 256 252 248 246 245 245 246 246 247 248 247 244 244 246 247 246 247 251 256 260 261 258 252 249 248 247 247 246 247 247 246 245 245 244 242 242 242 242 242 243 245 246 244 243 243 245 249 252 253 253 253 253 253 250 248 248 249 252 250 244 244 245 246 245
352 296 241 224 220 218 220 224 228 232 238 243 245 250 257 261 261 260 255 252 253 254 254 252 249 247 245 246 248 249 251 250 246 244 245 248 249 250 251 252 255 260 262 260 257 254 251 249 249 248 248 248 246 246 247 246 244 242 242 243 242 244 247 247 247 245 245 248 250 253 254 254 254 254 252 250 248 245 250 254 250 244 243 244 243
22 10 347 288 250 235 231 233 235 235 236 239 242 242 243 244 250 255 255 253 253 251 250 250 250 249 246 245 247 248 248 248 247 245 244 244 246 247 249 251 250 253 257 259 260 260 256 253 251 249 248 248 248 246 247 248 247 244 242 244 244 243 244 246 246 246 246 249 251 252 254 254 255 253 250 251 252 247 248 253 253 250 245 244 245
27 24 19 5 337 293 257 246 246 248 246 244 244 244 245 244 244 246 248 247 248 251 252 253 253 252 250 248 247 248 248 247 248 247 245 245 245 245 247 249 249 250 252 253 255 257 258 256 253 252 252 252 251 250 248 247 248 247 246 246 247 246 245 245 246 246 246 249 251 252 254 254 253 251 249 247 246 245 245 247 250 254 252 248 248
25 23 20 15 8 358 332 291 264 258 257 256 255 251 250 249 248 248 249 247 244 245 247 250 254 256 257 257 255 254 253 249 246 246 248 249 248 248 249 250 251 252 252 251 252 252 253 254 253 254 254 255 255 255 256 256 255 254 250 246 247 248 248 247 246 245 246 249 251 251 252 253 251 250 248 245 243 244 244 241 243 252 257 256 253
21 19 16 14 12 6 356 346 325 292 274 266 263 262 259 257 254 254 255 254 251 249 247 247 249 250 253 256 257 257 257 257 256 256 256 255 253 253 253 253 254 256 256 255 256 254 252 252 254 256 257 256 255 256 258 259 260 260 257 253 249 248 249 250 249 247 247 248 248 248 249 250 249 249 248 249 250 250 247 244 243 248 252 253 254
20 17 13 10 7 3 359 355 347 331 313 294 280 274 269 266 263 260 258 258 257 255 254 252 252 251 251 251 253 256 257 257 260 262 262 260 259 257 256 254 253 253 255 256 257 257 255 255 256 258 258 259 261 262 261 259 259 259 259 259 257 252 249 250 251 252 249 247 247 247 247 249 251 252 251 252 254 253 250 249 249 247 246 246 250
21 19 15 9 5 3 1 358 350 342 333 319 305 294 286 280 275 269 264 262 260 258 257 257 256 256 255 255 254 255 257 257 259 261 263 263 263 262 262 260 258 255 254 254 256 257 257 258 257 257 257 259 261 264 264 264 263 261 259 259 258 256 253 251 251 251 250 250 250 248 247 248 250 253 253 253 255 254 251 251 252 248 244 246 246
18 18 15 10 8 6 3 358 351 348 340 327 318 312 306 299 291 284 275 267 265 263 261 259 258 258 258 259 258 258 258 259 259 260 260 262 264 265 265 265 264 262 260 258 257 257 257 257 258 257 258 258 259 260 262 265 267 268 266 263 260 259 257 255 253 252 250 249 249 250 251 252 251 253 255 255 254 253 252 254 256 248 239 247 256
9 10 10 9 7 5 2 358 351 349 346 337 328 321 314 306 299 296 290 280 276 273 269 265 263 260 258 259 260 261 261 262 262 262 262 262 262 264 264 265 266 266 265 264 263 262 261 260 260 260 259 259 260 261 262 264 266 269 270 270 267 264 262 259 257 255 253 250 249 250 251 252 252 254 257 258 256 253 252 255 259 258 253 260 269
0 360 3 3 1 0 360 357 351 347 345 339 330 324 318 311 304 299 294 287 283 280 275 273 273 270 265 261 260 260 260 262 264 264 264 263 262 262 263 264 265 266 267 267 267 267 266 265 265 265 264 263 262 262 262 263 263 264 265 267 268 269 268 266 263 260 258 256 255 254 253 253 253 254 255 256 256 255 253 253 259 264 263 264 267
356 356 357 355 354 355 355 354 351 346 340 334 329 325 319 314 309 303 296 289 285 281 274 269 269 271 271 270 266 261 259 260 261 262 261 260 260 260 262 264 266 267 267 268 268 268 268 268 268 268 269 268 267 266 265 265 265 265 264 263 264 265 266 267 268 267 265 264 263 261 260 260 258 257 255 253 252 253 253 252 252 253 253 253 255
354 353 353 351 350 351 351 349 345 341 337 332 329 327 322 316 312 305 300 295 290 287 281 273 269 266 266 269 272 269 263 259 258 256 256 256 257 258 260 262 263 265 267 268 269 270 271 271 271 272 272 272 271 271 271 271 270 270 270 268 267 265 263 263 264 266 266 266 266 265 265 265 264 262 261 258 253 251 252 253 248 241 242 245 249
351 350 349 349 349 349 347 343 340 339 338 334 330 327 324 319 315 309 307 305 299 295 291 283 276 271 268 268 268 268 267 262 258 255 254 253 253 253 253 254 255 260 265 269 271 273 274 274 274 274 274 274 275 275 274 274 273 272 272 272 271 269 267 265 264 263 263 264 265 266 267 267 266 265 264 264 262 257 253 253 250 247 247 245 246
348 345 345 348 349 348 346 342 341 341 341 337 332 329 325 322 322 323 324 321 313 303 296 290 284 277 271 268 265 265 267 267 261 252 246 243 243 243 245 249 255 262 268 273 276 277 278 279 280 279 278 278 276 275 274 272 270 269 268 269 268 268 269 269 267 264 263 263 264 265 265 266 266 267 267 267 267 263 259 256 253 250 249 248 247
344 342 344 347 346 346 345 342 342 344 342 339 336 332 330 329 332 335 335 335 331 321 308 298 293 286 279 274 271 268 266 266 258 244 235 235 239 244 251 260 267 271 275 277 278 277 278 280 282 282 283 282 280 278 276 274 271 267 264 262 262 263 266 268 268 265 262 261 262 262 263 265 267 268 268 268 266 265 264 262 256 250 249 249 250
343 341 343 344 343 346 348 343 343 347 345 343 342 338 336 335 337 340 341 341 339 332 321 308 301 298 292 285 280 272 266 263 257 245 238 239 246 255 264 273 278 280 282 281 280 279 279 279 279 279 280 280 280 279 277 276 273 268 264 261 259 260 260 260 262 263 262 261 260 260 261 263 264 265 266 264 263 263 263 263 260 255 251 248 247
341 340 341 345 347 350 351 347 347 349 346 346 347 345 342 340 339 340 341 341 342 339 333 324 315 309 303 295 289 283 276 271 268 261 253 253 260 269 275 280 285 288 289 289 289 289 288 285 283 281 279 277 276 275 274 272 269 265 263 262 260 260 261 259 259 260 261 260 259 259 259 259 258 260 261 260 259 259 261 261 258 256 254 251 248
338 337 340 346 350 350 349 348 349 350 348 350 351 351 352 354 350 344 340 338 340 341 338 331 325 320 315 308 301 297 293 286 280 275 269 267 272 279 283 289 295 298 300 300 300 300 299 295 292 289 285 282 279 277 275 272 267 263 260 259 258 258 259 260 260 259 260 259 257 256 255 253 252 252 253 254 256 257 258 258 258 258 257 257 255
335 338 341 343 345 348 348 347 348 350 350 352 354 354 357 2 2 357 351 345 342 340 335 330 328 326 322 320 317 314 311 303 293 290 287 283 284 292 300 306 308 308 308 309 310 310 308 303 298 293 289 285 283 280 278 274 270 266 262 258 256 256 255 255 256 257 258 258 257 256 255 254 253 252 252 253 254 254 254 255 258 258 257 258 258
335 341 342 342 344 348 348 344 349 355 355 355 356 355 356 359 1 2 3 359 353 346 340 336 334 329 325 325 325 322 319 316 310 305 300 298 303 312 315 314 314 313 312 312 314 314 312 309 305 299 292 286 283 281 280 278 273 268 265 261 257 254 254 253 252 253 254 255 256 256 257 256 255 255 256 255 254 252 252 253 254 254 255 257 257
336 342 344 343 345 349 347 345 352 356 355 358 359 356 357 358 355 357 4 6 3 356 349 345 340 336 332 329 325 325 325 323 320 316 312 312 316 319 318 316 316 317 317 317 317 315 314 314 313 309 302 293 285 281 283 282 275 269 268 266 261 256 254 253 252 252 253 254 254 255 257 258 257 257 257 255 252 250 249 250 250 251 252 254 253
336 340 342 341 344 347 345 349 358 358 352 358 1 357 358 359 356 358 2 4 4 3 358 353 348 345 342 337 332 331 330 328 323 321 321 320 321 321 321 322 322 323 324 323 320 317 317 317 316 311 306 300 290 284 284 284 279 273 271 268 263 259 257 257 257 256 256 256 255 255 256 258 259 258 256 253 250 249 248 247 247 248 248 247 248
330 335 337 336 339 345 345 348 357 353 344 354 2 0 358 359 357 2 5 5 6 6 5 3 1 357 350 343 338 338 337 332 326 323 324 323 323 323 324 325 325 326 326 324 322 320 320 320 317 313 310 307 300 290 284 283 285 283 277 270 264 261 260 260 260 260 260 260 258 256 256 255 255 256 255 253 252 250 248 247 246 246 245 244 245
319 325 331 328 330 341 345 346 352 352 347 351 357 358 5 11 9 5 6 6 7 9 10 11 9 5 0 355 349 345 342 335 327 324 324 324 323 323 324 324 325 326 327 327 326 325 325 324 321 318 316 316 313 301 285 275 280 283 277 271 268 265 263 261 260 261 262 262 261 260 259 256 254 253 252 252 253 252 250 248 246 245 244 243 244
304 308 320 322 325 337 342 335 342 349 348 348 347 347 357 7 12 13 9 4 5 10 12 11 7 1 1 1 358 353 347 341 335 330 327 325 323 322 321 321 324 326 329 333 334 332 330 329 327 326 328 329 325 314 293 272 271 277 277 274 272 270 268 265 263 264 264 261 262 264 264 261 258 255 253 251 251 251 250 249 248 247 244 243 244
293 296 303 313 328 343 341 327 334 342 341 342 345 344 343 347 355 2 1 355 356 1 5 5 2 359 358 359 358 355 353 350 346 341 337 331 326 322 320 320 323 328 335 344 349 346 340 337 336 337 340 339 329 318 303 284 278 281 282 280 277 275 274 272 269 268 266 263 264 265 264 262 260 258 255 253 252 251 249 248 248 247 246 246 246
287 290 292 303 325 339 333 321 328 335 335 338 342 343 342 340 341 344 345 347 350 353 357 358 357 355 355 355 354 354 354 352 349 346 344 341 336 333 328 323 322 328 340 353 360 0 356 354 351 348 346 340 325 314 308 298 290 287 287 286 283 280 277 275 274 273 270 267 266 265 264 262 261 259 257 254 254 254 251 249 248 247 248 249 249
290 290 289 293 308 320 322 322 326 328 330 332 335 338 340 338 335 335 336 340 344 347 351 356 359 359 355 352 351 350 348 348 348 346 344 344 345 344 340 334 330 331 339 350 359 4 5 6 5 1 357 352 343 334 327 318 308 300 293 289 287 285 283 280 276 274 273 272 269 267 265 263 262 262 259 255 254 254 253 251 250 249 249 250 251
305 291 291 297 301 303 306 313 316 319 323 325 327 329 330 332 335 334 331 331 336 339 339 341 350 359 357 349 345 343 341 342 343 341 338 340 343 342 341 346 351 348 344 346 352 356 358 1 4 4 1 359 357 354 351 347 340 331 317 302 291 284 280 279 278 277 276 275 274 272 270 267 264 263 262 259 257 255 253 251 251 251 250 250 250
318 295 298 315 319 301 293 302 311 316 318 320 322 322 323 327 332 333 329 326 328 332 333 331 334 343 349 346 340 336 337 338 337 335 332 334 338 340 342 351 360 358 351 350 351 350 348 349 351 352 352 353 354 352 351 350 350 350 348 338 321 300 283 274 271 274 276 275 273 272 274 273 271 269 267 265 262 259 256 254 252 251 252 251 252
322 294 291 307 311 292 286 293 298 299 305 316 323 323 320 323 326 327 327 324 322 327 330 325 325 333 341 344 342 338 336 334 331 331 332 333 337 343 347 350 353 353 351 353 356 356 350 341 340 343 344 344 346 346 346 346 345 346 349 351 348 339 319 292 274 267 269 273 273 273 273 274 274 273 271 267 263 260 259 258 256 256 256 257 259
323 300 280 282 283 282 285 288 289 297 313 327 331 320 311 316 321 323 323 320 319 324 326 321 324 331 334 335 339 341 340 336 333 334 336 338 340 346 348 345 346 348 348 349 355 359 357 347 343 344 344 343 342 341 341 341 342 343 345 347 347 348 346 333 305 278 268 268 272 276 277 277 277 278 275 271 268 266 265 264 263 263 263 264 266
327 321 301 288 289 294 295 289 290 302 315 320 313 302 304 315 322 322 321 319 319 322 322 318 322 326 322 324 334 341 343 344 344 341 339 339 340 343 343 342 342 344 344 346 350 354 355 355 356 357 355 352 349 345 342 342 341 342 343 344 343 343 345 347 344 325 294 277 273 272 271 270 271 275 277 276 274 273 272 270 268 266 265 265 266
316 320 318 313 312 313 311 303 300 307 313 310 304 304 311 317 318 316 316 317 318 320 319 317 320 319 316 321 332 339 342 343 343 341 340 339 338 336 335 338 341 342 341 343 346 347 348 350 354 357 357 355 353 350 346 344 343 343 342 341 341 341 342 343 346 347 341 327 307 289 278 271 267 266 266 268 271 273 273 271 269 268 266 264 263
296 306 313 320 324 325 330 333 331 327 319 312 308 310 313 316 318 319 320 317 317 318 318 319 319 314 311 321 331 336 339 339 337 335 337 338 337 335 333 333 337 339 339 339 340 340 341 342 344 346 347 346 346 346 343 340 339 340 340 339 338 339 340 341 343 344 343 342 341 336 325 312 295 280 270 264 263 264 266 266 266 266 266 264 262
283 291 303 316 326 331 335 338 337 330 320 315 315 316 316 317 321 324 323 320 321 322 319 318 317 311 314 327 335 335 334 335 334 331 332 333 332 332 332 331 332 334 335 336 335 335 335 336 335 335 337 338 339 338 338 337 337 336 336 336 336 336 336 338 341 342 340 340 341 341 339 337 335 325 304 279 265 261 260 260 262 263 264 264 264
274 280 289 298 308 318 323 324 323 320 317 316 313 312 313 314 314 318 322 324 327 328 324 322 319 313 315 327 335 335 334 335 331 327 328 329 328 327 327 327 329 330 331 331 331 331 332 332 331 330 331 333 335 336 335 335 336 335 334 334 334 334 336 337 338 338 337 338 341 341 338 335 334 335 333 320 292 271 262 258 258 259 260 262 264
266 268 271 274 281 290 295 298 301 301 301 301 299 299 304 307 308 309 313 316 319 322 321 320 320 315 314 322 330 334 335 331 322 318 322 325 326 326 324 322 322 325 326 328 329 328 328 329 329 329 329 329 331 332 334 335 335 334 333 334 334 334 334 335 336 337 336 336 339 341 341 338 335 333 335 336 329 309 287 272 264 262 262 262 264
260 264 269 273 278 284 288 290 293 294 294 295 296 297 299 302 304 305 304 302 303 306 308 309 312 314 316 319 321 322 321 317 314 316 320 322 324 325 323 320 319 319 320 322 323 324 325 326 327 328 328 327 328 328 330 332 333 332 331 332 332 333 333 334 335 335 335 337 341 344 344 342 338 335 338 342 343 338 325 306 287 275 269 267 267
264 268 274 277 280 285 288 290 292 293 294 296 296 296 295 295 297 299 299 296 295 297 298 299 302 306 310 313 313 312 312 314 316 318 319 319 321 321 319 318 317 316 315 315 316 318 320 322 323 324 325 326 327 328 328 329 330 330 329 330 330 331 333 335 335 334 334 336 341 344 346 346 343 341 342 345 347 349 351 348 334 310 286 273 269
269 272 275 279 281 286 290 291 291 291 291 289 287 285 284 284 283 282 284 288 292 294 295 295 295 296 298 301 303 305 308 311 314 316 317 318 319 318 316 316 316 314 312 310 310 311 313 315 316 319 322 324 325 326 327 330 331 329 328 328 329 331 333 333 333 333 334 337 340 343 346 348 348 348 348 349 349 352 355 359 360 354 338 313 292
273 275 278 281 283 287 291 293 293 293 292 290 289 288 287 285 283 280 281 285 289 292 295 296 296 295 293 293 294 296 300 303 308 312 314 316 318 318 317 316 315 314 312 309 307 306 306 308 310 313 315 317 320 322 324 328 331 331 330 327 326 327 329 330 332 333 335 336 339 342 347 351 352 351 351 351 354 357 359 360 359 360 2 7 9
276 278 281 283 285 287 290 292 293 294 294 294 293 291 290 288 287 286 286 285 284 286 288 290 290 289 288 288 290 292 294 296 302 307 310 312 314 316 317 316 315 314 312 309 307 305 302 302 303 306 308 311 313 315 317 320 323 327 330 329 327 326 326 327 329 332 335 337 339 342 345 349 352 354 354 353 355 0 5 7 5 2 3 11 22
280 282 283 285 286 289 292 294 295 296 296 295 293 292 292 291 290 289 287 285 281 279 279 280 280 281 281 283 288 291 292 293 297 300 303 305 307 311 314 316 316 315 313 310 308 306 304 302 300 300 301 304 307 308 310 312 313 317 322 325 326 327 327 327 328 329 331 334 339 342 344 346 349 354 359 1 2 6 9 13 14 13 10 9 15
285 287 288 290 292 295 298 301 302 302 303 302 302 302 303 302 300 298 294 289 283 280 279 278 279 280 281 283 287 290 292 293 294 294 294 297 302 306 310 313 314 314 313 311 308 306 304 304 302 300 298 299 300 302 304 304 305 307 312 316 321 324 325 327 328 328 328 332 337 341 344 344 344 347 354 2 8 14 18 21 24 27 28 28 34
291 292 294 297 299 300 302 303 304 303 304 305 305 305 305 304 303 302 299 296 291 287 284 283 281 280 279 280 284 288 290 292 293 293 293 295 298 301 305 308 311 313 312 310 308 306 304 303 303 302 300 298 298 299 300 300 300 301 302 305 311 316 320 322 324 325 327 330 335 339 344 344 341 338 343 354 5 16 24 30 36 43 48 51 59